Weather History for Covington, KY

Change the Weather History Date:

Friday, June 28, 2013

  Actual Average Record
Temperature  
Mean Temperature 75 °F 75 °F  
Max Temperature 86 °F 85 °F 102 °F (1944)
Min Temperature 64 °F 65 °F 50 °F (1987)
Degree Days  
Heating Degree Days 0 0  
Month to date heating degree days 1 12  
Since 1 June heating degree days 1 12  
Since 1 July heating degree days 4981 4972  
Cooling Degree Days 10 10  
Month to date cooling degree days 226 206  
Year to date cooling degree days 365 300  
Since 1 June cooling degree days 226 206  
Growing Degree Days 25 (Base 50)    
Moisture  
Dew Point 65 °F    
Average Humidity 68    
Maximum Humidity 93    
Minimum Humidity 43    
Precipitation  
Precipitation 0.06 in 0.12 in 2.50 in (1924)
Month to date precipitation 6.01 3.80  
Year to date precipitation 23.89 22.39  
Snow  
Snow 0.00 in 0.00 in 0.00 in ()
Month to date snowfall 0.0 0.0  
Since 1 June snowfall 0.0 0.0  
Since 1 July snowfall 25.2 22.1  
Snow Depth 0.00 in    
Sea Level Pressure  
Sea Level Pressure 29.65 in    
Wind  
Wind Speed 11 mph (West)    
Max Wind Speed 35 mph    
Max Gust Speed 44 mph    
Visibility 10 miles    
Events Rain    
T = Trace of Precipitation, MM = Missing Value Source: NWS Daily Summary

Daily Weather History Graph

Daily Weather History Graph

Search for Another Location

Airport:

Trip Planner

Search our weather history database for the weather conditions in past years. The results will help you decide how hot, cold, wet, or windy it might be!

Date:

Astronomy

Jun. 28, 2013 Rise Set
Actual Time 6:15 AM EDT 9:08 PM EDT
Civil Twilight 5:43 AM EDT 9:40 PM EDT
Nautical Twilight 5:02 AM EDT 10:21 PM EDT
Astronomical Twilight 4:16 AM EDT 11:07 PM EDT
Moon 12:08 AM EDT (6/28) 12:18 PM EDT (6/28)
Length of Visible Light 15h 57m
Length of Day
14h 53m
Waning Gibbous, 66% of the Moon is Illuminated
Jun 28
Waning Gibbous
Jun 30
Last Quarter
Jul 8
New
Jul 15
First Quarter
Jul 22
Full

Hourly Weather History & Observations

Time (EDT) Temp. Heat Index Dew Point Humidity Pressure Visibility Wind Dir Wind Speed Gust Speed Precip Events Conditions
12:52 AM 75.0 °F - 72.0 °F 90% 29.70 in 10.0 mi SW 6.9 mph - N/A   Partly Cloudy
1:52 AM 75.0 °F - 71.1 °F 87% 29.70 in 10.0 mi WSW 6.9 mph - N/A   Partly Cloudy
2:52 AM 75.0 °F - 71.1 °F 87% 29.68 in 10.0 mi WSW 9.2 mph - N/A   Partly Cloudy
3:52 AM 73.9 °F - 69.1 °F 85% 29.67 in 10.0 mi West 8.1 mph - N/A   Clear
4:52 AM 72.0 °F - 68.0 °F 87% 29.66 in 10.0 mi West 9.2 mph - N/A   Clear
5:52 AM 71.1 °F - 66.9 °F 87% 29.66 in 10.0 mi West 10.4 mph - N/A   Partly Cloudy
7:52 AM 73.0 °F - 66.9 °F 81% 29.67 in 10.0 mi West 12.7 mph 20.7 mph N/A   Partly Cloudy
8:52 AM 75.0 °F - 66.9 °F 76% 29.67 in 10.0 mi WNW 13.8 mph - N/A   Partly Cloudy
9:52 AM 77.0 °F - 66.9 °F 71% 29.66 in 10.0 mi West 10.4 mph - N/A   Partly Cloudy
10:52 AM 79.0 °F - 66.0 °F 64% 29.65 in 10.0 mi West 12.7 mph - N/A   Partly Cloudy
11:52 AM 82.9 °F 84.6 °F 64.9 °F 54% 29.65 in 10.0 mi West 17.3 mph 23.0 mph N/A   Partly Cloudy
12:52 PM 82.9 °F 84.0 °F 63.0 °F 51% 29.65 in 10.0 mi West 17.3 mph - N/A   Mostly Cloudy
1:52 PM 84.0 °F 84.5 °F 62.1 °F 47% 29.63 in 10.0 mi WNW 21.9 mph 27.6 mph N/A   Scattered Clouds
2:52 PM 84.9 °F 84.8 °F 60.1 °F 43% 29.62 in 10.0 mi WNW 16.1 mph - N/A   Scattered Clouds
3:52 PM 84.9 °F 84.8 °F 60.1 °F 43% 29.60 in 10.0 mi WNW 17.3 mph 24.2 mph N/A   Scattered Clouds
4:52 PM 84.0 °F 83.8 °F 59.0 °F 43% 29.59 in 10.0 mi West 16.1 mph 25.3 mph N/A   Scattered Clouds
5:52 PM 82.0 °F 82.1 °F 59.0 °F 45% 29.60 in 10.0 mi West 13.8 mph - N/A   Mostly Cloudy
6:06 PM 75.2 °F - 59.0 °F 57% 29.65 in 10.0 mi North 27.6 mph 43.7 mph 0.00 in Rain Light Rain
6:52 PM 68.0 °F - 63.0 °F 84% 29.65 in 10.0 mi NW 6.9 mph - 0.03 in Rain Light Rain
7:52 PM 70.0 °F - 61.0 °F 73% 29.62 in 10.0 mi Calm Calm - 0.00 in   Mostly Cloudy
8:52 PM 69.1 °F - 63.0 °F 81% 29.62 in 10.0 mi Calm Calm - N/A   Mostly Cloudy
9:52 PM 66.0 °F - 63.0 °F 90% 29.62 in 10.0 mi West 3.5 mph - 0.03 in   Mostly Cloudy
10:52 PM 64.0 °F - 63.0 °F 96% 29.63 in 10.0 mi Calm Calm - N/A   Scattered Clouds
11:52 PM 66.9 °F - 64.0 °F 90% 29.64 in 10.0 mi NW 12.7 mph 25.3 mph N/A   Mostly Cloudy
11:59 PM 66.2 °F - 64.4 °F 94% 29.66 in 10.0 mi West 8.1 mph - N/A   Mostly Cloudy